YAOGAN-30 J

导读

YAOGAN-30 J是中国于2017年12月25日发射的遥感三十号系列卫星,隶属于该系列第九组组网卫星,同组还包含YAOGAN-30 G、YAOGAN-30 H两颗卫星。该卫星采用多星组网模式运行,轨道倾角约95.9度,主要任务是开展电磁环境探测及相关空间科学技术试验,服务我国国土观测、空间环境研究等领域,是中国遥感卫星组网体系的重要组成部分。

基本信息
目录编号:
43083
目录名称:
YAOGAN-30 J
国际标识:
2017-085C
轨道中心:
EARTH
卫星名称:
YAOGAN-30 J
卫星全名:
--
卫星状态:
在轨 (已飞行3182 天)
发射日期:
2017-12-25 UTC
国别 :
中国 (CN)
星等 :
--
该卫星已列入 空间交会检测服务 Space Conjunction Data Service (SCDS) ,当前飞行风险评估等级: 无高风险
轨道信息
数据来源 国际轨道数据
星历时间: 2026-09-11T00:41:18+0800
13小时前
查看轨道信息
半长轴: 6935.754km
偏心率: 0.0004552
轨道倾角: 34.996°
近地点辐角 170.636°
升交点赤经 349.239°
平近点角 189.443°
近地点: 554.459km
远地点: 560.775km
周期: 95.808分钟
每日圈数: 15.030115
详细信息
使用方式:
暂无
2D轨道图
3D轨道图
轨道高度分析图
轨道倾角分析图
轨道综合分析图
查看轨道综合分析图
与全量物体交会距离演化趋势
与全量物体交会风险概率演化趋势